Location: Unspecified
(50.7693°N, 0.0000°E)
Time: 14:27:34
(UTC+00:00)

SR - Pass Details

Date: 29 June 2019
Orbit: 578 x 878 km, 66.7° (Epoch: 24 August)

Event Time Altitude Azimuth Distance (km) Brightness Sun altitude
Rises 05:54:38 0° 301° (WNW) 2,858 ? 16.5°
Reaches altitude 10° 05:58:35 10° 338° (NNW) 2,011 ? 17.1°
Maximum altitude 05:59:58 11° 356° (N) 1,953 ? 17.3°
Drops below altitude 10° 06:01:23 10° 14° (NNE) 2,059 ? 17.5°
Sets 06:05:36 0° 49° (NE) 3,055 ? 18.1°
